Eastover, SC

7:41 PM EDT on April 29, 2017 (GMT -0400)
McEntire Angs

Weather History for KMMT - October, 2012

Change the Weather History Date:

Wednesday, October 24, 2012

  Actual Average Record
Temperature  
Mean Temperature 64 °F -  
Max Temperature 81 °F 71 °F 87 °F (2001)
Min Temperature 47 °F 49 °F 30 °F (2006)
Degree Days  
Heating Degree Days 1    
Growing Degree Days 14 (Base 50)    
Moisture  
Dew Point 51 °F    
Average Humidity 92    
Maximum Humidity 100    
Minimum Humidity 40    
Precipitation  
Precipitation 0.00 in - - ()
Sea Level Pressure  
Sea Level Pressure 30.17 in    
Wind  
Wind Speed 1 mph (NW)    
Max Wind Speed 8 mph    
Max Gust Speed -    
Visibility 3 miles    
Events Fog    
Averages and records for this station are not official NWS values.
T = Trace of Precipitation, MM = Missing Value Source: NWS Daily Summary

Daily Weather History Graph

Daily Weather History Graph

Search for Another Location

Airport or City:

Trip Planner

Search our weather history database for the weather conditions in past years. The results will help you decide how hot, cold, wet, or windy it might be!

Date:

Astronomy

Oct. 24, 2012 Rise Set
Actual Time 7:36 AM EDT 6:38 PM EDT
Civil Twilight 7:10 AM EDT 7:03 PM EDT
Nautical Twilight 6:41 AM EDT 7:32 PM EDT
Astronomical Twilight 6:12 AM EDT 8:01 PM EDT
Moon 3:41 PM EDT (10/24) 2:42 AM EDT (10/24)
Length of Visible Light 11h 53m
Length of Day
11h 02m
Waxing Gibbous, 76% of the Moon is Illuminated
Oct 24
Waxing Gibbous
Oct 29
Full
Nov 6
Last Quarter
Nov 13
New
Nov 20
First Quarter

Hourly Weather History & Observations

Time (EDT) Temp. Heat Index Dew Point Humidity Pressure Visibility Wind Dir Wind Speed Gust Speed Precip Events Conditions
12:55 AM 51.1 °F - 47.5 °F 87% 30.17 in 10.0 mi Calm Calm - N/A   Clear
1:55 AM 50.9 °F - 48.9 °F 93% 30.17 in 10.0 mi Calm Calm - N/A   Clear
2:55 AM 50.7 °F - 49.1 °F 94% 30.16 in 10.0 mi Calm Calm - N/A   Clear
3:52 AM 48.2 °F - 48.2 °F 100% 30.15 in 1.5 mi Calm Calm - N/A   Clear
3:53 AM 48.2 °F - 48.2 °F 100% 30.15 in 1.2 mi Calm Calm - N/A   Clear
3:54 AM 48.2 °F - 48.2 °F 100% 30.15 in 1.0 mi Calm Calm - N/A   Clear
3:55 AM 48.7 °F - 47.7 °F 96% 30.15 in 0.8 mi Calm Calm - N/A   Clear
3:57 AM 48.2 °F - 48.2 °F 100% 30.15 in 0.5 mi Calm Calm - N/A Fog Fog
3:59 AM 48.2 °F - 48.2 °F 100% 30.15 in 0.5 mi Calm Calm - N/A Fog Fog
4:00 AM 48.2 °F - 48.2 °F 100% 30.15 in 0.5 mi Calm Calm - N/A Fog Fog
4:03 AM 48.2 °F - 48.2 °F 100% 30.15 in 0.5 mi Calm Calm - N/A Fog Fog
4:15 AM 48.2 °F - 48.2 °F 100% 30.15 in 0.2 mi Calm Calm - N/A Fog Fog
4:22 AM 48.2 °F - 48.2 °F 100% 30.15 in 0.5 mi Calm Calm - N/A Fog Fog
4:26 AM 48.2 °F - 48.2 °F 100% 30.15 in 0.2 mi Calm Calm - N/A Fog Fog
4:27 AM 48.2 °F - 48.2 °F 100% 30.15 in 0.2 mi NNW 3.5 mph - N/A Fog Fog
4:31 AM 48.2 °F - 48.2 °F 100% 30.15 in 0.5 mi Calm Calm - N/A Fog Fog
4:41 AM 48.2 °F - 48.2 °F 100% 30.15 in 0.2 mi Calm Calm - N/A Fog Fog
4:42 AM 48.2 °F - 48.2 °F 100% 30.15 in 0.2 mi Calm Calm - N/A Fog Fog
4:55 AM 50.0 °F - 49.8 °F 99% 30.15 in 0.2 mi Calm Calm - N/A Fog Fog
5:00 AM 50.0 °F - 48.2 °F 94% 30.15 in 0.2 mi Calm Calm - N/A Fog Fog
5:12 AM 48.2 °F - 48.2 °F 100% 30.16 in 0.5 mi Calm Calm - N/A Fog Fog
5:18 AM 48.2 °F - 48.2 °F 100% 30.16 in 0.2 mi NW 3.5 mph - N/A Fog Fog
5:30 AM 50.0 °F - 48.2 °F 94% 30.16 in 0.2 mi NW 4.6 mph - N/A Fog Fog
5:32 AM 50.0 °F - 50.0 °F 100% 30.16 in 0.5 mi NW 4.6 mph - N/A Fog Fog
5:40 AM 50.0 °F - 50.0 °F 100% 30.17 in 0.2 mi NW 5.8 mph - N/A Fog Fog
5:41 AM 50.0 °F - 50.0 °F 100% 30.17 in 0.2 mi NW 5.8 mph - N/A Fog Fog
5:55 AM 50.0 °F - 49.8 °F 99% 30.17 in 0.2 mi Calm Calm - N/A Fog Fog
6:00 AM 50.0 °F - 50.0 °F 100% 30.17 in 0.5 mi Calm Calm - N/A Fog Fog
6:02 AM 50.0 °F - 50.0 °F 100% 30.17 in 0.5 mi Calm Calm - N/A Fog Fog
6:03 AM 50.0 °F - 50.0 °F 100% 30.18 in 0.8 mi Calm Calm - N/A   Mist
6:05 AM 50.0 °F - 50.0 °F 100% 30.18 in 1.0 mi Calm Calm - N/A   Mist
6:06 AM 50.0 °F - 50.0 °F 100% 30.18 in 1.2 mi Calm Calm - N/A   Partly Cloudy
6:07 AM 50.0 °F - 48.2 °F 94% 30.18 in 1.5 mi Calm Calm - N/A   Partly Cloudy
6:08 AM 48.2 °F - 48.2 °F 100% 30.18 in 2.0 mi Calm Calm - N/A   Partly Cloudy
6:10 AM 48.2 °F - 48.2 °F 100% 30.18 in 3.0 mi Calm Calm - N/A   Partly Cloudy
6:13 AM 48.2 °F - 48.2 °F 100% 30.18 in 2.5 mi Calm Calm - N/A   Partly Cloudy
6:17 AM 48.2 °F - 48.2 °F 100% 30.18 in 1.8 mi Calm Calm - N/A   Partly Cloudy
6:18 AM 48.2 °F - 48.2 °F 100% 30.18 in 1.5 mi Calm Calm - N/A   Partly Cloudy
6:19 AM 48.2 °F - 48.2 °F 100% 30.18 in 1.2 mi Calm Calm - N/A   Scattered Clouds
6:20 AM 48.2 °F - 48.2 °F 100% 30.18 in 1.0 mi Calm Calm - N/A   Mist
6:21 AM 48.2 °F - 48.2 °F 100% 30.18 in 1.0 mi Calm Calm - N/A   Mist
6:22 AM 48.2 °F - 48.2 °F 100% 30.18 in 0.8 mi Calm Calm - N/A   Mist
6:25 AM 50.0 °F - 50.0 °F 100% 30.18 in 1.0 mi NNW 3.5 mph - N/A   Mist
6:28 AM 50.0 °F - 50.0 °F 100% 30.18 in 1.2 mi NNW 3.5 mph - N/A   Mostly Cloudy
6:29 AM 50.0 °F - 50.0 °F 100% 30.18 in 1.5 mi NNW 3.5 mph - N/A   Mostly Cloudy
6:30 AM 50.0 °F - 50.0 °F 100% 30.18 in 1.8 mi Calm Calm - N/A   Mostly Cloudy
6:31 AM 50.0 °F - 50.0 °F 100% 30.18 in 2.0 mi Calm Calm - N/A   Mostly Cloudy
6:33 AM 50.0 °F - 50.0 °F 100% 30.18 in 3.0 mi Calm Calm - N/A   Mostly Cloudy
6:36 AM 50.0 °F - 50.0 °F 100% 30.18 in 2.0 mi Calm Calm - N/A   Mostly Cloudy
6:37 AM 50.0 °F - 50.0 °F 100% 30.18 in 1.2 mi Calm Calm - N/A   Mostly Cloudy
6:38 AM 50.0 °F - 50.0 °F 100% 30.18 in 0.8 mi Calm Calm - N/A   Mist
6:39 AM 50.0 °F - 50.0 °F 100% 30.18 in 0.5 mi Calm Calm - N/A Fog Fog
6:42 AM 50.0 °F - 50.0 °F 100% 30.18 in 0.2 mi Calm Calm - N/A Fog Fog
6:44 AM 50.0 °F - 50.0 °F 100% 30.19 in 0.2 mi Calm Calm - N/A Fog Fog
6:45 AM 50.0 °F - 50.0 °F 100% 30.19 in 0.2 mi Calm Calm - N/A Fog Fog
6:55 AM 49.6 °F - 49.5 °F 99% 30.19 in 0.8 mi Calm Calm - N/A   Mostly Cloudy
7:43 AM 48.2 °F - 48.2 °F 100% 30.20 in 0.5 mi SSE 2.3 mph - N/A Fog Fog
7:55 AM 47.7 °F - 47.3 °F 99% 30.20 in 0.6 mi Calm Calm - N/A Fog Fog
8:14 AM 48.2 °F - 48.2 °F 100% 30.20 in 0.1 mi Calm Calm - N/A Fog Fog
8:55 AM 52.5 °F - 52.5 °F 100% 30.21 in 0.5 mi Calm Calm - N/A Fog Fog
9:17 AM 55.4 °F - 55.4 °F 100% 30.21 in 0.8 mi Calm Calm - N/A   Scattered Clouds
9:20 AM 55.4 °F - 55.4 °F 100% 30.21 in 1.0 mi Calm Calm - N/A   Scattered Clouds
9:26 AM 55.4 °F - 55.4 °F 100% 30.21 in 10.0 mi NW 1.2 mph - N/A   Partly Cloudy
9:55 AM 60.1 °F - 60.1 °F 100% 30.22 in 10.0 mi Calm Calm - N/A   Partly Cloudy
10:55 AM 72.1 °F - 59.7 °F 65% 30.21 in 10.0 mi West 3.5 mph - N/A   Partly Cloudy
11:55 AM 75.9 °F - 58.5 °F 55% 30.19 in 10.0 mi North 4.6 mph - N/A   Partly Cloudy
12:55 PM 79.0 °F - 55.6 °F 44% 30.17 in 10.0 mi SW 4.6 mph - N/A   Partly Cloudy
1:55 PM 78.6 °F - 55.8 °F 45% 30.14 in 10.0 mi Calm Calm - N/A   Partly Cloudy
2:55 PM 80.6 °F 80.4 °F 54.7 °F 41% 30.11 in 10.0 mi South 8.1 mph - N/A   Partly Cloudy
3:55 PM 81.3 °F 81.1 °F 56.3 °F 42% 30.10 in 10.0 mi Calm Calm - N/A   Partly Cloudy
4:55 PM 80.4 °F 80.2 °F 53.8 °F 40% 30.10 in 10.0 mi SSE 6.9 mph - N/A   Partly Cloudy
5:55 PM 77.5 °F - 57.0 °F 49% 30.10 in 10.0 mi SE 4.6 mph - N/A   Clear
6:55 PM 70.5 °F - 57.7 °F 64% 30.11 in 10.0 mi Calm Calm - N/A   Clear
7:55 PM 64.0 °F - 57.2 °F 78% 30.12 in 10.0 mi Calm Calm - N/A   Clear
8:55 PM 61.5 °F - 56.1 °F 82% 30.13 in 10.0 mi Calm Calm - N/A   Clear
9:55 PM 59.0 °F - 55.2 °F 87% 30.14 in 10.0 mi Calm Calm - N/A   Clear
10:55 PM 61.2 °F - 56.3 °F 84% 30.14 in 10.0 mi ESE 3.5 mph - N/A   Clear
11:55 PM 60.8 °F - 57.4 °F 88% 30.13 in 10.0 mi Calm Calm - N/A   Clear